Location: Sherrills_Ford_Terrell
(35.6000°N, 80.9830°W)
Time: 10:28:01
(UTC-05:00)

ISS - Visible Passes

Search period start: 30 January 2015 00:00
Search period end: 09 February 2015 00:00
Orbit: 400 x 408 km, 51.6° (Epoch: 30 January)

Date Brightness Start Highest point End Pass type
(mag) Time Alt. Az. Time Alt. Az. Time Alt. Az.
30 Jan -0.9 06:15:43 11° SW 06:15:43 11° SW 06:16:11 10° SSW visible
01 Feb -0.7 19:29:40 10° S 19:30:00 12° S 19:30:00 12° S visible
02 Feb -0.2 20:12:44 10° SW 20:13:10 13° WSW 20:13:10 13° WSW visible
03 Feb -3.2 19:20:26 10° SSW 19:23:31 54° SE 19:23:31 54° SE visible
04 Feb -2.0 18:28:37 10° S 18:31:18 25° SE 18:33:46 12° ENE visible
04 Feb -0.7 20:04:52 10° W 20:06:26 21° WNW 20:06:26 21° WNW visible
05 Feb -2.7 19:12:00 10° WSW 19:15:11 51° NW 19:16:33 29° NNE visible
06 Feb -3.3 18:19:28 10° SW 18:22:43 72° SE 18:25:58 10° NE visible
06 Feb -0.6 19:57:36 10° WNW 19:59:13 14° NNW 19:59:13 14° NNW visible
07 Feb -1.3 19:04:07 10° W 19:06:47 23° NNW 19:09:06 12° NNE visible
